| time (UTC) | temp F | wind direction | speed MPH | gust MPH | rain 1hr in | rain 24hr in | rain mn in | humidity % | barometer mb |
| 20260905112819 | 56 | 163 | 0.0 | 0.0 | 0.00 | 0.02 | 0.00 | 77 | 1012.5 |
| 20260905112328 | 56 | 163 | 0.0 | 0.0 | 0.00 | 0.02 | 0.00 | 77 | 1012.6 |
| 20260905111836 | 56 | 163 | 0.0 | 0.0 | 0.00 | 0.02 | 0.00 | 76 | 1012.7 |
| 20260905111324 | 56 | 163 | 0.0 | 0.0 | 0.00 | 0.02 | 0.00 | 76 | 1012.7 |
| 20260905110820 | 56 | 163 | 0.0 | 0.0 | 0.00 | 0.02 | 0.00 | 76 | 1012.8 |
| 20260905110329 | 56 | 163 | 0.0 | 0.0 | 0.00 | 0.02 | 0.00 | 76 | 1012.7 |
| 20260905105819 | 56 | 163 | 0.0 | 0.0 | 0.00 | 0.02 | 0.00 | 76 | 1012.7 |
| 20260905105332 | 56 | 163 | 0.0 | 0.0 | 0.00 | 0.02 | 0.00 | 76 | 1012.7 |
| 20260905104821 | 56 | 163 | 0.0 | 0.0 | 0.00 | 0.02 | 0.00 | 76 | 1012.6 |
| 20260905104330 | 56 | 163 | 0.0 | 0.0 | 0.00 | 0.02 | 0.00 | 75 | 1012.7 |
| 20260905103820 | 56 | 163 | 0.0 | 0.0 | 0.00 | 0.02 | 0.00 | 75 | 1012.7 |
| 20260905103329 | 56 | 163 | 0.0 | 0.0 | 0.00 | 0.02 | 0.00 | 75 | 1012.8 |
| 20260905102822 | 56 | 163 | 0.0 | 0.0 | 0.00 | 0.02 | 0.00 | 75 | 1012.8 |
| 20260905102332 | 56 | 163 | 0.0 | 0.0 | 0.00 | 0.02 | 0.00 | 74 | 1012.8 |
| 20260905101822 | 56 | 163 | 0.0 | 0.0 | 0.00 | 0.02 | 0.00 | 74 | 1012.9 |
| 20260905101332 | 56 | 163 | 0.0 | 0.0 | 0.00 | 0.02 | 0.00 | 74 | 1012.9 |
| 20260905100821 | 56 | 163 | 0.0 | 0.0 | 0.00 | 0.02 | 0.00 | 74 | 1012.8 |
| 20260905100329 | 57 | 163 | 0.0 | 0.0 | 0.00 | 0.02 | 0.00 | 74 | 1012.8 |
| 20260905095817 | 57 | 163 | 0.0 | 0.0 | 0.00 | 0.02 | 0.00 | 74 | 1012.8 |
| 20260905095325 | 57 | 163 | 0.0 | 0.0 | 0.00 | 0.02 | 0.00 | 74 | 1012.8 |
| 20260905094833 | 57 | 163 | 0.0 | 0.0 | 0.00 | 0.02 | 0.00 | 74 | 1012.8 |
| 20260905094326 | 57 | 163 | 0.0 | 0.0 | 0.00 | 0.03 | 0.00 | 73 | 1012.8 |
| 20260905093834 | 57 | 163 | 0.0 | 0.0 | 0.00 | 0.03 | 0.00 | 73 | 1012.8 |
| 20260905093323 | 57 | 163 | 0.0 | 0.0 | 0.00 | 0.03 | 0.00 | 72 | 1012.8 |
| 20260905092831 | 57 | 163 | 0.0 | 0.0 | 0.00 | 0.03 | 0.00 | 71 | 1012.9 |
| 20260905092320 | 57 | 163 | 0.0 | 0.0 | 0.00 | 0.03 | 0.00 | 70 | 1012.8 |
| 20260905091828 | 58 | 163 | 0.0 | 0.0 | 0.00 | 0.03 | 0.00 | 70 | 1012.8 |
| 20260905091317 | 58 | 163 | 0.0 | 0.0 | 0.00 | 0.03 | 0.00 | 70 | 1012.8 |
| 20260905090825 | 58 | 163 | 0.0 | 0.0 | 0.00 | 0.03 | 0.00 | 68 | 1012.8 |
| 20260905090333 | 58 | 163 | 0.0 | 0.0 | 0.00 | 0.03 | 0.00 | 68 | 1012.8 |
| 20260905085826 | 58 | 163 | 0.0 | 0.0 | 0.00 | 0.03 | 0.00 | 67 | 1012.8 |
| 20260905085336 | 59 | 163 | 0.0 | 0.0 | 0.00 | 0.03 | 0.00 | 67 | 1012.8 |
| 20260905084824 | 59 | 163 | 0.0 | 0.0 | 0.00 | 0.03 | 0.00 | 67 | 1012.7 |
| 20260905084335 | 59 | 163 | 0.0 | 0.0 | 0.00 | 0.04 | 0.00 | 66 | 1012.8 |
| 20260905083823 | 59 | 163 | 0.0 | 0.0 | 0.00 | 0.04 | 0.00 | 66 | 1012.8 |
| 20260905083331 | 60 | 163 | 0.0 | 0.0 | 0.00 | 0.04 | 0.00 | 66 | 1012.8 |
| 20260905082819 | 60 | 163 | 0.0 | 0.0 | 0.00 | 0.04 | 0.00 | 66 | 1012.8 |
| 20260905082329 | 60 | 163 | 0.0 | 0.0 | 0.00 | 0.04 | 0.00 | 66 | 1012.9 |
| 20260905081817 | 60 | 163 | 0.0 | 0.0 | 0.00 | 0.04 | 0.00 | 66 | 1012.9 |
| 20260905081329 | 60 | 163 | 0.0 | 0.0 | 0.00 | 0.04 | 0.00 | 66 | 1012.8 |
| 20260905080818 | 60 | 163 | 0.0 | 0.0 | 0.00 | 0.04 | 0.00 | 65 | 1012.8 |
| 20260905080327 | 61 | 163 | 0.0 | 0.0 | 0.00 | 0.04 | 0.00 | 65 | 1012.8 |
| 20260905075835 | 61 | 163 | 0.0 | 0.0 | 0.00 | 0.04 | 0.00 | 65 | 1012.8 |
| 20260905075324 | 61 | 163 | 0.0 | 0.0 | 0.00 | 0.04 | 0.00 | 65 | 1012.8 |
| 20260905074813 | 61 | 163 | 0.0 | 0.0 | 0.00 | 0.04 | 0.00 | 65 | 1012.9 |
| 20260905074326 | 61 | 163 | 0.0 | 0.0 | 0.00 | 0.05 | 0.00 | 64 | 1012.7 |
| 20260905073818 | 61 | 163 | 0.0 | 0.0 | 0.00 | 0.05 | 0.00 | 64 | 1012.7 |
| 20260905073327 | 61 | 163 | 0.0 | 0.0 | 0.00 | 0.05 | 0.00 | 64 | 1012.7 |
| 20260905072819 | 61 | 163 | 0.0 | 0.0 | 0.00 | 0.05 | 0.00 | 64 | 1012.6 |
| 20260905072326 | 61 | 163 | 0.0 | 0.0 | 0.00 | 0.05 | 0.00 | 64 | 1012.7 |
| 20260905071834 | 61 | 167 | 0.0 | 0.0 | 0.00 | 0.05 | 0.00 | 64 | 1012.6 |
| 20260905071323 | 62 | 167 | 0.0 | 0.0 | 0.00 | 0.05 | 0.00 | 64 | 1012.5 |
| 20260905070830 | 62 | 167 | 0.0 | 0.0 | 0.00 | 0.05 | 0.00 | 64 | 1012.6 |
| 20260905070321 | 62 | 171 | 0.0 | 0.0 | 0.00 | 0.05 | 0.00 | 64 | 1012.4 |
| 20260905065828 | 62 | 172 | 0.0 | 0.0 | 0.00 | 0.05 | 0.00 | 64 | 1012.5 |
| 20260905065318 | 62 | 259 | 0.0 | 0.0 | 0.00 | 0.05 | 0.00 | 64 | 1012.3 |
| 20260905064829 | 62 | 259 | 0.0 | 0.0 | 0.00 | 0.05 | 0.00 | 64 | 1012.3 |
| 20260905064322 | 62 | 261 | 0.0 | 0.0 | 0.00 | 0.05 | 0.00 | 64 | 1012.4 |
| 20260905063831 | 62 | 261 | 0.0 | 0.0 | 0.00 | 0.05 | 0.00 | 64 | 1012.3 |
| 20260905063320 | 62 | 260 | 0.0 | 0.0 | 0.00 | 0.05 | 0.00 | 64 | 1012.4 |
| 20260905062830 | 63 | 261 | 0.0 | 0.0 | 0.00 | 0.05 | 0.00 | 63 | 1012.4 |
| 20260905062319 | 63 | 261 | 0.0 | 0.0 | 0.00 | 0.05 | 0.00 | 62 | 1012.4 |
| 20260905061827 | 63 | 261 | 0.0 | 0.0 | 0.00 | 0.05 | 0.00 | 62 | 1012.5 |
| 20260905061316 | 63 | 261 | 0.0 | 0.0 | 0.00 | 0.05 | 0.00 | 61 | 1012.4 |
| 20260905060824 | 64 | 260 | 0.0 | 0.0 | 0.00 | 0.05 | 0.00 | 60 | 1012.5 |
| 20260905060318 | 64 | 261 | 0.0 | 0.0 | 0.00 | 0.05 | 0.00 | 61 | 1012.4 |
| 20260905055827 | 64 | 260 | 0.0 | 0.0 | 0.00 | 0.05 | 0.00 | 60 | 1012.4 |
| 20260905055318 | 64 | 261 | 0.0 | 0.0 | 0.00 | 0.05 | 0.00 | 60 | 1012.4 |
| 20260905054827 | 65 | 260 | 0.0 | 0.0 | 0.00 | 0.05 | 0.00 | 59 | 1012.4 |
| 20260905054336 | 65 | 261 | 0.0 | 0.0 | 0.00 | 0.05 | 0.00 | 58 | 1012.4 |
| 20260905053823 | 65 | 261 | 0.0 | 0.0 | 0.00 | 0.05 | 0.00 | 58 | 1012.4 |
| 20260905053333 | 66 | 260 | 0.0 | 0.0 | 0.00 | 0.05 | 0.00 | 58 | 1012.4 |
| 20260905052820 | 66 | 261 | 0.0 | 0.0 | 0.00 | 0.05 | 0.00 | 57 | 1012.4 |
| 20260905052329 | 66 | 260 | 0.0 | 0.0 | 0.00 | 0.05 | 0.00 | 56 | 1012.3 |
| 20260905051821 | 67 | 260 | 0.0 | 0.0 | 0.00 | 0.05 | 0.00 | 57 | 1012.3 |
| 20260905051331 | 67 | 261 | 0.0 | 0.0 | 0.00 | 0.05 | 0.00 | 55 | 1012.4 |
| 20260905050820 | 67 | 261 | 0.0 | 0.0 | 0.00 | 0.05 | 0.00 | 55 | 1012.3 |
| 20260905050329 | 67 | 261 | 0.0 | 0.0 | 0.00 | 0.05 | 0.00 | 55 | 1012.4 |
| 20260905045818 | 67 | 261 | 0.0 | 0.0 | 0.00 | 0.05 | 0.00 | 55 | 1012.3 |
| 20260905045328 | 67 | 261 | 0.0 | 0.0 | 0.00 | 0.05 | 0.00 | 56 | 1012.4 |
| 20260905044816 | 68 | 260 | 0.0 | 0.0 | 0.00 | 0.05 | 0.00 | 56 | 1012.3 |
| 20260905044326 | 68 | 248 | 0.0 | 0.0 | 0.00 | 0.05 | 0.00 | 55 | 1012.3 |
| 20260905043818 | 68 | 248 | 0.0 | 0.0 | 0.00 | 0.05 | 0.00 | 55 | 1012.3 |
| 20260905043332 | 68 | 248 | 0.0 | 0.0 | 0.00 | 0.05 | 0.00 | 55 | 1012.3 |
| 20260905042820 | 68 | 248 | 0.0 | 0.0 | 0.00 | 0.05 | 0.00 | 55 | 1012.2 |
| 20260905042328 | 68 | 248 | 0.0 | 0.0 | 0.00 | 0.05 | 0.00 | 55 | 1012.2 |
| 20260905041836 | 68 | 248 | 0.0 | 0.0 | 0.00 | 0.05 | 0.00 | 54 | 1012.1 |
| 20260905041325 | 68 | 248 | 0.0 | 0.0 | 0.00 | 0.05 | 0.00 | 54 | 1012.1 |
| 20260905040833 | 69 | 248 | 0.0 | 0.0 | 0.00 | 0.05 | 0.00 | 54 | 1012.0 |
| 20260905040322 | 69 | 248 | 0.0 | 0.0 | 0.00 | 0.05 | 0.00 | 53 | 1011.9 |
| 20260905035831 | 69 | 248 | 0.0 | 0.0 | 0.00 | 0.05 | 0.00 | 52 | 1011.9 |
| 20260905035320 | 69 | 234 | 0.0 | 0.0 | 0.00 | 0.05 | 0.00 | 51 | 1011.8 |
| 20260905034834 | 69 | 234 | 0.0 | 0.0 | 0.00 | 0.05 | 0.00 | 50 | 1011.8 |
| 20260905034324 | 69 | 234 | 0.0 | 0.0 | 0.00 | 0.05 | 0.00 | 49 | 1011.8 |
| 20260905033833 | 69 | 233 | 0.0 | 0.0 | 0.00 | 0.05 | 0.00 | 47 | 1011.7 |
| 20260905033325 | 70 | 234 | 0.0 | 0.0 | 0.00 | 0.05 | 0.00 | 43 | 1011.6 |
| 20260905032833 | 70 | 227 | 0.0 | 0.0 | 0.00 | 0.05 | 0.00 | 42 | 1011.5 |
| 20260905032322 | 71 | 227 | 0.0 | 0.0 | 0.00 | 0.05 | 0.00 | 41 | 1011.5 |
| 20260905031831 | 71 | 227 | 0.0 | 0.0 | 0.00 | 0.05 | 0.00 | 40 | 1011.4 |
| 20260905031324 | 72 | 228 | 0.0 | 0.0 | 0.00 | 0.05 | 0.00 | 39 | 1011.4 |
| 20260905030817 | 72 | 228 | 0.0 | 0.0 | 0.00 | 0.05 | 0.00 | 37 | 1011.3 |
| 20260905030326 | 73 | 228 | 0.0 | 0.0 | 0.00 | 0.05 | 0.00 | 37 | 1011.3 |
| 20260905025814 | 73 | 227 | 0.0 | 0.0 | 0.00 | 0.05 | 0.00 | 37 | 1011.4 |
| 20260905025326 | 74 | 228 | 0.0 | 0.0 | 0.00 | 0.05 | 0.00 | 36 | 1011.3 |
| 20260905024835 | 74 | 228 | 0.0 | 0.0 | 0.00 | 0.05 | 0.00 | 35 | 1011.2 |
| 20260905024325 | 74 | 228 | 0.0 | 0.0 | 0.00 | 0.05 | 0.00 | 34 | 1011.1 |
| 20260905023835 | 75 | 227 | 0.0 | 0.0 | 0.00 | 0.05 | 0.00 | 34 | 1011.2 |
| 20260905023324 | 75 | 228 | 0.0 | 0.0 | 0.00 | 0.05 | 0.00 | 33 | 1011.1 |
| 20260905022833 | 75 | 227 | 0.0 | 0.0 | 0.00 | 0.05 | 0.00 | 33 | 1011.1 |
| 20260905022327 | 75 | 227 | 0.0 | 0.0 | 0.00 | 0.05 | 0.00 | 33 | 1011.1 |
| 20260905021834 | 76 | 228 | 0.0 | 0.0 | 0.00 | 0.05 | 0.00 | 33 | 1011.1 |
| 20260905021324 | 76 | 228 | 0.0 | 0.0 | 0.00 | 0.05 | 0.00 | 33 | 1011.1 |
| 20260905020813 | 76 | 228 | 0.0 | 0.0 | 0.00 | 0.05 | 0.00 | 33 | 1011.1 |
| 20260905020327 | 77 | 227 | 0.0 | 0.0 | 0.00 | 0.05 | 0.00 | 33 | 1011.0 |
| 20260905015834 | 77 | 163 | 0.0 | 0.0 | 0.00 | 0.05 | 0.00 | 35 | 1011.1 |
| 20260905015323 | 77 | 241 | 0.0 | 0.0 | 0.00 | 0.05 | 0.00 | 35 | 1011.1 |
| 20260905014831 | 78 | 213 | 0.0 | 0.0 | 0.00 | 0.05 | 0.00 | 36 | 1011.1 |
| 20260905014320 | 78 | 269 | 0.0 | 0.0 | 0.00 | 0.05 | 0.00 | 36 | 1011.1 |
| 20260905013834 | 78 | 159 | 0.0 | 0.0 | 0.00 | 0.05 | 0.00 | 34 | 1011.0 |
| 20260905013324 | 79 | 157 | 0.0 | 0.0 | 0.00 | 0.05 | 0.00 | 34 | 1011.0 |
| 20260905012832 | 79 | 153 | 0.0 | 0.0 | 0.00 | 0.05 | 0.00 | 34 | 1011.0 |
| 20260905012321 | 80 | 152 | 0.0 | 0.0 | 0.00 | 0.05 | 0.00 | 34 | 1011.0 |
| 20260905011831 | 80 | 154 | 0.0 | 0.0 | 0.00 | 0.05 | 0.00 | 34 | 1011.0 |
| 20260905011323 | 80 | 154 | 0.0 | 0.0 | 0.00 | 0.05 | 0.00 | 34 | 1010.9 |
| 20260905010836 | 81 | 153 | 0.0 | 0.0 | 0.00 | 0.05 | 0.00 | 34 | 1010.9 |
| 20260905010323 | 81 | 153 | 0.0 | 0.0 | 0.00 | 0.05 | 0.00 | 34 | 1010.9 |
| 20260905005831 | 81 | 153 | 0.0 | 0.0 | 0.00 | 0.05 | 0.00 | 34 | 1010.8 |
| 20260905005324 | 81 | 148 | 0.0 | 0.0 | 0.00 | 0.05 | 0.00 | 35 | 1010.8 |
| 20260905004836 | 82 | 136 | 0.0 | 0.0 | 0.00 | 0.05 | 0.00 | 34 | 1010.8 |
| 20260905004325 | 82 | 329 | 0.0 | 0.0 | 0.00 | 0.05 | 0.00 | 35 | 1010.8 |
| 20260905003832 | 82 | 329 | 0.0 | 0.0 | 0.00 | 0.05 | 0.00 | 35 | 1010.9 |
| 20260905003322 | 82 | 329 | 0.0 | 0.0 | 0.00 | 0.05 | 0.00 | 34 | 1010.9 |
| 20260905002834 | 82 | 329 | 0.0 | 0.0 | 0.00 | 0.05 | 0.00 | 34 | 1010.9 |
| 20260905002324 | 82 | 342 | 0.0 | 0.0 | 0.00 | 0.05 | 0.00 | 35 | 1010.8 |
| 20260905001831 | 82 | 342 | 0.0 | 0.0 | 0.00 | 0.05 | 0.00 | 35 | 1010.9 |
| 20260905001326 | 82 | 349 | 0.0 | 0.0 | 0.00 | 0.05 | 0.00 | 36 | 1010.9 |
| 20260905000835 | 82 | 350 | 0.0 | 0.0 | 0.00 | 0.05 | 0.00 | 36 | 1010.9 |
| 20260905000325 | 81 | 350 | 0.0 | 0.0 | 0.00 | 0.05 | 0.00 | 35 | 1010.9 |
| 20260904235831 | 81 | 240 | 0.0 | 0.0 | 0.00 | 0.05 | 0.00 | 36 | 1011.0 |
| 20260904235320 | 81 | 240 | 0.0 | 0.0 | 0.00 | 0.05 | 0.00 | 37 | 1011.1 |
| 20260904234828 | 81 | 240 | 0.0 | 0.0 | 0.00 | 0.05 | 0.00 | 37 | 1011.0 |
| 20260904234318 | 81 | 240 | 0.0 | 0.0 | 0.00 | 0.05 | 0.00 | 37 | 1011.1 |
| 20260904233827 | 81 | 240 | 0.0 | 0.0 | 0.00 | 0.05 | 0.00 | 37 | 1011.1 |
| 20260904233320 | 81 | 256 | 0.0 | 0.0 | 0.00 | 0.05 | 0.00 | 37 | 1011.1 |
| 20260904232833 | 80 | 341 | 0.0 | 0.0 | 0.00 | 0.05 | 0.00 | 38 | 1011.1 |
| 20260904232323 | 80 | 337 | 0.0 | 0.0 | 0.00 | 0.05 | 0.00 | 37 | 1011.2 |
| 20260904231831 | 80 | 327 | 0.0 | 0.0 | 0.00 | 0.05 | 0.00 | 38 | 1011.4 |
| 20260904231323 | 80 | 328 | 0.0 | 0.0 | 0.00 | 0.05 | 0.00 | 37 | 1011.3 |
| 20260904230830 | 80 | 271 | 0.0 | 0.0 | 0.00 | 0.05 | 0.00 | 37 | 1011.4 |
| 20260904230319 | 80 | 306 | 0.0 | 0.0 | 0.00 | 0.05 | 0.00 | 38 | 1011.4 |
| 20260904225828 | 80 | 306 | 0.0 | 0.0 | 0.00 | 0.05 | 0.00 | 37 | 1011.4 |
| 20260904225318 | 80 | 291 | 0.0 | 0.0 | 0.00 | 0.05 | 0.00 | 38 | 1011.5 |
| 20260904224826 | 80 | 292 | 0.0 | 0.0 | 0.00 | 0.05 | 0.00 | 37 | 1011.6 |
| 20260904224319 | 80 | 296 | 0.0 | 0.0 | 0.00 | 0.05 | 0.00 | 38 | 1011.7 |
| 20260904223830 | 80 | 296 | 0.0 | 0.0 | 0.00 | 0.05 | 0.00 | 38 | 1011.6 |
| 20260904223319 | 79 | 288 | 0.0 | 0.0 | 0.00 | 0.05 | 0.00 | 38 | 1011.6 |
| 20260904222832 | 79 | 298 | 0.0 | 0.0 | 0.00 | 0.05 | 0.00 | 40 | 1011.5 |
| 20260904222321 | 79 | 327 | 0.0 | 0.0 | 0.00 | 0.05 | 0.00 | 40 | 1011.6 |
| 20260904221829 | 79 | 13 | 0.0 | 0.0 | 0.00 | 0.05 | 0.00 | 40 | 1011.6 |
| 20260904221319 | 79 | 230 | 0.0 | 0.0 | 0.00 | 0.05 | 0.00 | 39 | 1011.6 |
| 20260904220830 | 79 | 229 | 0.0 | 0.0 | 0.00 | 0.05 | 0.00 | 39 | 1011.8 |
| 20260904220324 | 79 | 248 | 0.0 | 0.0 | 0.00 | 0.05 | 0.00 | 39 | 1011.7 |
| 20260904215833 | 79 | 205 | 0.0 | 0.0 | 0.00 | 0.05 | 0.00 | 40 | 1011.7 |
| 20260904215323 | 79 | 143 | 0.0 | 0.0 | 0.00 | 0.05 | 0.00 | 39 | 1011.8 |
| 20260904214831 | 78 | 227 | 0.0 | 0.0 | 0.00 | 0.05 | 0.00 | 40 | 1011.7 |
| 20260904214323 | 78 | 163 | 0.0 | 0.0 | 0.00 | 0.05 | 0.00 | 40 | 1011.7 |
| 20260904213832 | 78 | 140 | 0.0 | 0.0 | 0.00 | 0.05 | 0.00 | 40 | 1011.7 |
| 20260904213320 | 78 | 268 | 0.0 | 0.0 | 0.00 | 0.05 | 0.00 | 41 | 1011.6 |
| 20260904212828 | 78 | 263 | 0.0 | 0.0 | 0.00 | 0.05 | 0.00 | 42 | 1011.7 |
| 20260904212317 | 78 | 242 | 0.0 | 0.0 | 0.00 | 0.05 | 0.00 | 41 | 1011.8 |
| 20260904211827 | 78 | 193 | 0.0 | 0.0 | 0.00 | 0.05 | 0.00 | 42 | 1011.7 |
| 20260904211316 | 78 | 263 | 0.0 | 0.0 | 0.00 | 0.05 | 0.00 | 43 | 1011.8 |
| 20260904210826 | 77 | 261 | 0.0 | 0.0 | 0.00 | 0.05 | 0.00 | 43 | 1011.7 |
| 20260904210335 | 77 | 275 | 0.0 | 0.0 | 0.00 | 0.05 | 0.00 | 46 | 1011.7 |
| 20260904205823 | 77 | 259 | 0.0 | 0.0 | 0.00 | 0.05 | 0.00 | 44 | 1011.7 |
| 20260904205332 | 77 | 259 | 0.0 | 0.0 | 0.00 | 0.05 | 0.00 | 45 | 1011.8 |
| 20260904204820 | 76 | 259 | 0.0 | 0.0 | 0.00 | 0.05 | 0.00 | 45 | 1011.8 |
| 20260904204329 | 76 | 196 | 0.0 | 0.0 | 0.00 | 0.05 | 0.00 | 45 | 1011.8 |
| 20260904203821 | 76 | 180 | 0.0 | 0.0 | 0.00 | 0.05 | 0.00 | 44 | 1011.8 |
| 20260904203313 | 76 | 187 | 0.0 | 0.0 | 0.00 | 0.05 | 0.00 | 44 | 1011.8 |
| 20260904202825 | 76 | 190 | 0.0 | 0.0 | 0.00 | 0.05 | 0.00 | 46 | 1011.8 |
| 20260904202334 | 75 | 325 | 0.0 | 0.0 | 0.00 | 0.05 | 0.00 | 46 | 1011.8 |
| 20260904201822 | 75 | 109 | 0.0 | 0.0 | 0.00 | 0.05 | 0.00 | 47 | 1011.9 |
| 20260904201331 | 75 | 96 | 0.0 | 0.0 | 0.00 | 0.05 | 0.00 | 47 | 1012.0 |
| 20260904200821 | 75 | 98 | 0.0 | 0.0 | 0.00 | 0.05 | 0.00 | 48 | 1012.0 |
| 20260904200330 | 75 | 203 | 0.0 | 0.0 | 0.00 | 0.05 | 0.00 | 50 | 1012.0 |
| 20260904195818 | 74 | 227 | 0.0 | 0.0 | 0.00 | 0.05 | 0.00 | 50 | 1012.1 |
| 20260904195328 | 74 | 248 | 0.0 | 0.0 | 0.00 | 0.05 | 0.00 | 50 | 1012.1 |
| 20260904194823 | 73 | 170 | 0.0 | 0.0 | 0.00 | 0.05 | 0.00 | 51 | 1012.2 |
| 20260904194333 | 73 | 297 | 0.0 | 0.0 | 0.00 | 0.05 | 0.00 | 53 | 1012.2 |
| 20260904193821 | 73 | 237 | 0.0 | 0.0 | 0.00 | 0.05 | 0.00 | 51 | 1012.2 |
| 20260904193330 | 73 | 211 | 0.0 | 0.0 | 0.00 | 0.05 | 0.00 | 56 | 1012.3 |
| 20260904192819 | 73 | 209 | 0.0 | 0.0 | 0.00 | 0.05 | 0.00 | 54 | 1012.3 |
| 20260904192331 | 73 | 210 | 0.0 | 0.0 | 0.00 | 0.05 | 0.00 | 54 | 1012.5 |
| 20260904191819 | 73 | 196 | 0.0 | 0.0 | 0.00 | 0.05 | 0.00 | 55 | 1012.5 |
| 20260904191331 | 73 | 198 | 0.0 | 0.0 | 0.00 | 0.05 | 0.00 | 55 | 1012.5 |
| 20260904190823 | 73 | 209 | 0.0 | 0.0 | 0.00 | 0.05 | 0.00 | 55 | 1012.6 |
| 20260904190332 | 73 | 181 | 0.0 | 0.0 | 0.00 | 0.05 | 0.00 | 57 | 1012.6 |
| 20260904185820 | 72 | 152 | 0.0 | 0.0 | 0.00 | 0.05 | 0.00 | 57 | 1012.7 |
| 20260904185330 | 72 | 152 | 0.0 | 0.0 | 0.00 | 0.05 | 0.00 | 58 | 1012.8 |
| 20260904184822 | 72 | 149 | 0.0 | 0.0 | 0.00 | 0.05 | 0.00 | 59 | 1012.7 |
| 20260904184331 | 71 | 117 | 0.0 | 0.0 | 0.00 | 0.05 | 0.00 | 60 | 1012.7 |
| 20260904183820 | 71 | 116 | 0.0 | 0.0 | 0.00 | 0.05 | 0.00 | 59 | 1012.7 |
| 20260904183330 | 71 | 140 | 0.0 | 0.0 | 0.00 | 0.05 | 0.00 | 61 | 1012.7 |
| 20260904182819 | 70 | 140 | 0.0 | 0.0 | 0.00 | 0.05 | 0.00 | 61 | 1012.7 |
| 20260904182333 | 70 | 122 | 0.0 | 0.0 | 0.00 | 0.05 | 0.00 | 62 | 1012.7 |
| 20260904181823 | 70 | 119 | 0.0 | 0.0 | 0.00 | 0.05 | 0.00 | 63 | 1012.6 |
| 20260904181332 | 69 | 163 | 0.0 | 0.0 | 0.00 | 0.05 | 0.00 | 64 | 1012.7 |
| 20260904180820 | 69 | 155 | 0.0 | 0.0 | 0.00 | 0.05 | 0.00 | 64 | 1012.7 |
| 20260904180330 | 69 | 118 | 0.0 | 0.0 | 0.00 | 0.05 | 0.00 | 65 | 1012.7 |
| 20260904175819 | 68 | 140 | 0.0 | 0.0 | 0.00 | 0.05 | 0.00 | 67 | 1012.8 |
| 20260904175334 | 68 | 107 | 0.0 | 0.0 | 0.00 | 0.05 | 0.00 | 69 | 1012.8 |
| 20260904174821 | 68 | 168 | 0.0 | 0.0 | 0.00 | 0.05 | 0.00 | 69 | 1012.8 |
| 20260904174332 | 67 | 168 | 0.0 | 0.0 | 0.00 | 0.05 | 0.00 | 69 | 1012.8 |
| 20260904173825 | 67 | 142 | 0.0 | 0.0 | 0.00 | 0.05 | 0.00 | 70 | 1012.8 |
| 20260904173334 | 67 | 182 | 0.0 | 0.0 | 0.00 | 0.05 | 0.00 | 70 | 1012.7 |
| 20260904172822 | 67 | 173 | 0.0 | 0.0 | 0.00 | 0.05 | 0.00 | 71 | 1012.7 |
| 20260904172331 | 67 | 221 | 0.0 | 0.0 | 0.00 | 0.05 | 0.00 | 74 | 1012.7 |
| 20260904171820 | 66 | 140 | 0.0 | 0.0 | 0.00 | 0.05 | 0.00 | 75 | 1012.6 |
| 20260904171331 | 66 | 234 | 0.0 | 0.0 | 0.00 | 0.05 | 0.00 | 76 | 1012.6 |
| 20260904170820 | 65 | 117 | 0.0 | 0.0 | 0.00 | 0.05 | 0.00 | 79 | 1012.5 |
| 20260904170329 | 65 | 150 | 0.0 | 0.0 | 0.00 | 0.05 | 0.00 | 81 | 1012.4 |
| 20260904165825 | 64 | 137 | 0.0 | 0.0 | 0.00 | 0.05 | 0.00 | 83 | 1012.5 |
| 20260904165318 | 64 | 150 | 0.0 | 0.0 | 0.00 | 0.05 | 0.00 | 84 | 1012.4 |
| 20260904164826 | 63 | 145 | 0.0 | 0.0 | 0.00 | 0.05 | 0.00 | 85 | 1012.4 |
| 20260904164334 | 63 | 173 | 0.0 | 0.0 | 0.00 | 0.05 | 0.00 | 87 | 1012.5 |
| 20260904163822 | 63 | 169 | 0.0 | 0.0 | 0.00 | 0.05 | 0.00 | 88 | 1012.4 |
| 20260904163332 | 62 | 150 | 0.0 | 0.0 | 0.00 | 0.05 | 0.00 | 89 | 1012.4 |
| 20260904162821 | 62 | 126 | 0.0 | 0.0 | 0.00 | 0.05 | 0.00 | 89 | 1012.3 |
| 20260904162331 | 62 | 153 | 0.0 | 0.0 | 0.00 | 0.05 | 0.00 | 89 | 1012.3 |
| 20260904161820 | 62 | 123 | 0.0 | 0.0 | 0.00 | 0.05 | 0.00 | 89 | 1012.2 |
| 20260904161334 | 62 | 146 | 0.0 | 0.0 | 0.00 | 0.05 | 0.00 | 89 | 1012.1 |
| 20260904160823 | 61 | 147 | 0.0 | 0.0 | 0.00 | 0.05 | 0.00 | 89 | 1012.1 |
| 20260904160333 | 61 | 188 | 0.0 | 0.0 | 0.00 | 0.05 | 0.00 | 89 | 1012.1 |
| 20260904155821 | 61 | 188 | 0.0 | 0.0 | 0.00 | 0.05 | 0.00 | 89 | 1012.1 |
| 20260904155331 | 60 | 192 | 0.0 | 0.0 | 0.00 | 0.05 | 0.00 | 89 | 1012.1 |
| 20260904154819 | 60 | 193 | 0.0 | 0.0 | 0.00 | 0.05 | 0.00 | 89 | 1012.1 |
| 20260904154332 | 60 | 196 | 0.0 | 0.0 | 0.00 | 0.05 | 0.00 | 89 | 1012.1 |
| 20260904153822 | 60 | 196 | 0.0 | 0.0 | 0.00 | 0.05 | 0.00 | 88 | 1012.1 |
| 20260904153332 | 60 | 196 | 0.0 | 0.0 | 0.00 | 0.05 | 0.00 | 88 | 1012.1 |
| 20260904152825 | 60 | 196 | 0.0 | 0.0 | 0.00 | 0.05 | 0.00 | 88 | 1012.0 |
| 20260904152334 | 60 | 196 | 0.0 | 0.0 | 0.00 | 0.05 | 0.00 | 88 | 1012.1 |
| 20260904151822 | 60 | 196 | 0.0 | 0.0 | 0.00 | 0.05 | 0.00 | 89 | 1012.1 |
| 20260904151332 | 60 | 196 | 0.0 | 0.0 | 0.00 | 0.05 | 0.00 | 89 | 1012.0 |
| 20260904150823 | 61 | 196 | 0.0 | 0.0 | 0.00 | 0.05 | 0.05 | 88 | 1012.0 |
| 20260904150336 | 61 | 196 | 0.0 | 0.0 | 0.00 | 0.05 | 0.05 | 89 | 1012.0 |
| 20260904145824 | 61 | 198 | 0.0 | 0.0 | 0.00 | 0.05 | 0.05 | 89 | 1012.0 |
| 20260904145333 | 61 | 198 | 0.0 | 0.0 | 0.00 | 0.05 | 0.05 | 89 | 1012.0 |
| 20260904144825 | 61 | 198 | 0.0 | 0.0 | 0.00 | 0.05 | 0.05 | 89 | 1012.0 |
| 20260904144334 | 61 | 198 | 0.0 | 0.0 | 0.00 | 0.05 | 0.05 | 89 | 1011.9 |
| 20260904143823 | 61 | 198 | 0.0 | 0.0 | 0.00 | 0.05 | 0.05 | 88 | 1011.8 |
| 20260904143333 | 61 | 198 | 0.0 | 0.0 | 0.00 | 0.05 | 0.05 | 88 | 1011.7 |
| 20260904142824 | 61 | 198 | 0.0 | 0.0 | 0.00 | 0.05 | 0.05 | 88 | 1011.7 |
| 20260904142334 | 61 | 198 | 0.0 | 0.0 | 0.00 | 0.05 | 0.05 | 88 | 1011.6 |
| 20260904141823 | 61 | 198 | 0.0 | 0.0 | 0.00 | 0.05 | 0.05 | 88 | 1011.4 |
| 20260904141333 | 61 | 198 | 0.0 | 0.0 | 0.00 | 0.05 | 0.05 | 88 | 1011.4 |
| 20260904140822 | 61 | 198 | 0.0 | 0.0 | 0.00 | 0.05 | 0.05 | 88 | 1011.2 |
| 20260904140336 | 61 | 198 | 0.0 | 0.0 | 0.00 | 0.05 | 0.05 | 88 | 1011.2 |
| 20260904135824 | 61 | 198 | 0.0 | 0.0 | 0.00 | 0.05 | 0.05 | 88 | 1011.1 |
| 20260904135336 | 61 | 157 | 0.0 | 0.0 | 0.00 | 0.05 | 0.05 | 88 | 1011.0 |
| 20260904134825 | 61 | 157 | 0.0 | 0.0 | 0.00 | 0.05 | 0.05 | 88 | 1011.0 |
| 20260904134334 | 61 | 157 | 0.0 | 0.0 | 0.00 | 0.05 | 0.05 | 88 | 1010.9 |
| 20260904133822 | 61 | 157 | 0.0 | 0.0 | 0.00 | 0.05 | 0.05 | 88 | 1010.9 |
| 20260904133334 | 61 | 157 | 0.0 | 0.0 | 0.00 | 0.05 | 0.05 | 88 | 1010.8 |
| 20260904132821 | 61 | 157 | 0.0 | 0.0 | 0.01 | 0.05 | 0.05 | 88 | 1010.8 |
| 20260904132330 | 61 | 157 | 0.0 | 0.0 | 0.01 | 0.05 | 0.05 | 88 | 1010.8 |
| 20260904131822 | 62 | 156 | 0.0 | 0.0 | 0.01 | 0.05 | 0.05 | 88 | 1010.8 |
| 20260904131330 | 62 | 156 | 0.0 | 0.0 | 0.02 | 0.05 | 0.05 | 88 | 1010.7 |
| 20260904130818 | 62 | 156 | 0.0 | 0.0 | 0.02 | 0.05 | 0.05 | 88 | 1010.6 |
| 20260904130330 | 62 | 156 | 0.0 | 0.0 | 0.02 | 0.05 | 0.05 | 88 | 1010.6 |
| 20260904125818 | 62 | 156 | 0.0 | 0.0 | 0.02 | 0.05 | 0.05 | 88 | 1010.6 |
| 20260904125328 | 62 | 156 | 0.0 | 0.0 | 0.02 | 0.05 | 0.05 | 88 | 1010.6 |
| 20260904124817 | 62 | 157 | 0.0 | 0.0 | 0.02 | 0.05 | 0.05 | 88 | 1010.5 |
| 20260904124327 | 62 | 156 | 0.0 | 0.0 | 0.02 | 0.05 | 0.05 | 88 | 1010.5 |
| 20260904123820 | 62 | 157 | 0.0 | 0.0 | 0.02 | 0.05 | 0.05 | 88 | 1010.5 |
| 20260904123330 | 62 | 156 | 0.0 | 0.0 | 0.02 | 0.05 | 0.05 | 88 | 1010.5 |
| 20260904122820 | 62 | 157 | 0.0 | 0.0 | 0.01 | 0.04 | 0.04 | 88 | 1010.4 |
| 20260904122329 | 62 | 157 | 0.0 | 0.0 | 0.01 | 0.04 | 0.04 | 88 | 1010.5 |
| 20260904121817 | 62 | 156 | 0.0 | 0.0 | 0.01 | 0.04 | 0.04 | 88 | 1010.4 |
| 20260904121326 | 62 | 148 | 0.0 | 0.0 | 0.01 | 0.04 | 0.04 | 88 | 1010.4 |
| 20260904120834 | 62 | 148 | 0.0 | 0.0 | 0.00 | 0.03 | 0.03 | 88 | 1010.3 |
| 20260904120322 | 62 | 148 | 0.0 | 0.0 | 0.00 | 0.03 | 0.03 | 88 | 1010.3 |
| 20260904115830 | 62 | 129 | 0.0 | 0.0 | 0.00 | 0.03 | 0.03 | 88 | 1010.3 |
| 20260904115324 | 62 | 175 | 0.0 | 0.0 | 0.00 | 0.03 | 0.03 | 88 | 1010.4 |
| 20260904114813 | 62 | 175 | 0.0 | 0.0 | 0.00 | 0.03 | 0.03 | 88 | 1010.3 |
| 20260904114327 | 62 | 175 | 0.0 | 0.0 | 0.00 | 0.03 | 0.03 | 88 | 1010.3 |
| 20260904113836 | 62 | 175 | 0.0 | 0.0 | 0.00 | 0.03 | 0.03 | 87 | 1010.3 |
| 20260904113325 | 62 | 175 | 0.0 | 0.0 | 0.00 | 0.03 | 0.03 | 87 | 1010.2 |